Погода в Кошкенте

Россия / Республика Дагестан     41°44′27″N   48°02′28″E
темп.,
°C
ветер,
м/с
пор.,
м/с
влажн.,
%
обл.,
%
осадки,
мм/ч
давл.,
гПа
погр.,
м
25 июня, сб
сб2500:00+15зсз2281100 0.1 101039
03:00+14з117968 0.1 101013
06:00+17с11735 0.0 1010101
09:00+20всв31672 0.0 1009608
12:00+23в326213 0.1 10091057
15:00+23всв4264100 0.2 1008904
18:00+19всв2181100 0.1 1009339
21:00+16сз2292100 0.1 101144
26 июня, вс
вс2600:00+17зюз2283100 0.0 101013
03:00+17вюв1177100 0.0 100911
06:00+18ю0076100 0.0 100993
09:00+21в2267100 0.0 1009711
12:00+22вюв1165100 0.1 1007822
15:00+23всв326048 0.1 1006991
18:00+21св2270100 0.1 1006107
21:00+17зюз328699 2.3 100928
27 июня, пн
пн2700:00+17з32763 0.7 100918
03:00+17з43690 0.7 100927
06:00+20з22640 0.0 100950
09:00+24всв22510 0.0 1009719
12:00+27св32470 0.0 10081479
15:00+26с545133 0.0 10081391
18:00+24с34630 0.0 1008403
21:00+20з33721 0.0 100924
28 июня, вт
вт2800:00+19з336510 0.0 100925
03:00+18з32615 0.0 100918
06:00+20з11580 0.0 100853
09:00+24всв31500 0.0 1008848
12:00+26св434410 0.0 10081398
15:00+25ссв544714 0.0 10081264
18:00+21ссв22679 0.1 1010416
21:00+16зюз11851 0.1 101212
29 июня, ср
ср2900:00+16з228114 0.1 101211
03:00+16зюз22808 0.6 101212
06:00+19сз126619 0.0 1013200
09:00+22св22422 0.0 10131204
12:00+24св333832 0.0 10121807
15:00+23всв434125 0.0 10121559
18:00+20в33561 0.0 1014538
21:00+14зюз11840 0.0 101511